Terminal Aerodrome Forecast
Issued by NWS

Home | Current Version | Previous Version | Text Only | Print | Product List | Glossary On
Versions: 1 2 3 4 5 6 7 8 9 10 11 12 13 14 15
000
FTUS45 KTFX 290500
TAFHVR
TAF
KHVR 290531Z 2906/3006 VRB06KT 6SM BR SCT180
      TEMPO 2909/2913 1SM BR SCT005
     FM291500 VRB06KT P6SM SCT180=

USA.gov is the U.S. government's official web portal to all federal, state and local government web resources and services.